GFSGBSN_250_rhum_159.txt.gz
RH
86 68 54 44 38 33 25 31 37 37 40 51 52 47 39 42 46 48 43 38 36 31 29 28 21 21 18 19 19 16 14 12 11 10 9 8 8 7 7 7 7 7 7 6 6 9 16
99 94 73 51 51 51 34 29 28 29 34 46 44 39 37 43 48 40 37 36 34 30 29 24 20 20 19 17 15 13 12 10 8 7 6 6 6 5 5 5 5 6 6 6 7 6 7
100 100 100 76 54 60 43 42 33 32 31 32 37 37 44 42 42 40 33 32 33 30 28 20 20 20 17 15 14 12 10 7 7 6 7 6 5 4 4 4 5 6 6 5 6 7 6
72 96 100 100 83 79 65 47 40 39 38 35 35 43 44 38 38 35 31 30 36 31 23 20 20 18 17 14 12 10 8 8 7 4 4 3 3 3 3 2 2 2 3 6 8 7 7
100 89 67 98 100 75 76 77 57 44 45 46 42 42 43 42 39 34 29 32 33 31 21 21 20 18 15 14 12 10 9 5 4 6 5 5 5 5 6 4 4 3 3 2 4 7 7
84 90 79 59 79 70 100 100 65 59 52 49 55 51 49 50 50 43 31 32 36 32 22 22 21 16 15 14 14 11 6 5 6 6 6 6 5 4 4 3 3 4 4 4 3 3 7
100 89 89 87 70 95 58 88 62 69 66 58 52 52 62 55 49 43 28 36 41 36 24 23 20 16 16 16 15 8 6 7 6 6 6 5 3 2 2 2 2 2 3 5 4 2 3
87 100 90 84 77 80 100 45 46 99 93 86 77 44 55 69 60 47 36 32 44 33 25 25 18 16 18 18 14 6 8 8 7 6 5 2 2 2 2 2 2 2 2 3 3 3 2
97 86 96 89 100 87 98 90 100 100 100 100 72 52 43 43 56 57 38 32 39 35 30 25 18 17 19 20 12 8 9 8 7 6 3 3 2 2 2 2 2 2 2 2 3 3 4
78 88 100 100 89 90 98 89 73 94 99 99 90 71 64 43 52 48 38 30 39 34 32 22 18 19 21 22 12 10 10 8 8 6 4 4 4 3 3 3 2 2 2 2 4 4 4
98 87 83 100 100 88 79 98 89 75 99 100 100 100 90 68 51 52 40 33 45 34 33 20 19 20 23 22 15 11 9 8 9 7 5 5 5 6 5 3 3 3 3 3 3 4 3
99 76 94 89 99 99 100 94 90 81 64 79 79 80 97 87 70 52 38 37 47 37 31 19 19 22 27 24 19 16 13 10 10 10 6 6 11 13 12 8 5 4 4 4 4 4 5
100 95 80 100 76 80 85 100 83 93 79 61 56 64 100 98 68 52 37 43 58 40 28 21 21 23 31 28 22 20 16 13 11 12 10 6 9 20 20 16 19 16 12 6 4 6 5
100 100 99 92 82 68 72 80 100 71 79 66 50 70 100 83 67 53 41 46 56 39 26 22 21 23 34 30 25 20 21 16 14 15 14 14 11 13 25 26 24 14 10 5 5 7 5
55 100 100 100 77 61 71 70 88 100 89 74 69 78 100 66 67 56 45 46 58 42 25 23 22 23 37 34 31 22 20 20 17 14 18 20 14 20 26 21 24 20 12 4 4 4 4
32 40 99 100 100 77 59 74 58 82 100 74 98 98 100 68 61 50 44 49 55 42 26 23 22 25 34 36 34 29 22 20 19 17 18 18 22 13 20 21 15 7 9 6 4 5 4
35 32 42 95 100 90 67 62 62 70 76 62 97 100 100 83 60 51 42 55 62 40 27 23 23 25 32 36 34 30 26 21 18 17 15 16 19 22 11 10 11 10 9 6 6 5 5
33 35 31 36 89 100 85 61 56 74 72 80 95 100 100 79 74 60 42 61 62 40 28 23 22 26 26 36 36 32 26 23 20 18 15 13 13 19 27 17 19 11 9 6 5 5 5
32 36 27 36 31 87 100 76 49 79 81 76 89 100 100 93 76 58 43 70 68 41 28 24 22 25 24 34 37 33 26 22 20 18 16 13 11 11 21 20 12 8 8 6 5 5 5
27 34 25 30 30 34 98 94 54 49 96 63 99 100 100 100 74 64 44 78 59 45 30 25 23 23 23 29 36 34 29 23 20 19 16 14 11 9 10 16 12 11 9 7 5 5 5
25 29 28 20 28 32 36 100 75 45 74 58 100 92 100 100 80 86 45 75 78 46 31 26 23 23 23 25 29 34 32 26 22 19 18 14 11 9 9 12 14 7 8 7 6 5 5
22 27 28 23 27 30 27 77 93 63 42 61 97 100 100 100 86 93 48 70 86 56 32 27 23 24 24 27 25 33 33 30 25 22 18 15 13 9 9 9 10 7 7 8 7 5 7
18 22 24 24 20 25 31 28 86 65 46 71 94 100 100 100 88 88 48 63 81 65 38 27 25 24 27 36 27 28 33 32 28 23 20 16 12 10 9 9 8 7 8 6 8 6 9
14 18 24 23 20 20 28 26 50 72 48 57 100 100 100 100 100 96 63 61 81 74 47 26 26 24 30 41 34 29 30 32 30 26 22 19 14 11 10 9 8 7 7 8 7 8 9
11 17 27 26 24 18 24 25 27 78 41 52 82 100 100 100 86 97 68 74 79 74 56 27 27 24 27 41 41 34 34 32 32 30 25 22 19 14 12 10 8 7 8 8 8 9 10
11 15 17 26 26 17 21 25 23 58 57 48 65 99 100 100 100 97 76 77 90 70 70 34 26 27 27 39 46 37 31 35 34 33 29 24 21 18 14 12 9 8 8 9 9 10 12
11 15 20 22 24 21 22 24 22 27 46 56 65 98 100 100 100 96 78 82 92 69 77 48 27 28 28 37 42 42 37 32 31 32 32 30 25 21 17 14 12 10 8 9 9 11 13
11 14 19 24 27 21 16 20 22 26 41 62 66 100 100 100 100 97 97 98 94 70 79 66 35 28 30 33 40 43 42 43 38 31 30 30 31 27 22 18 14 13 12 11 12 12 14
11 15 21 21 16 14 14 21 23 27 43 70 74 100 100 100 100 98 97 94 85 83 79 80 55 31 29 32 36 44 43 43 44 44 39 36 35 33 32 24 20 17 15 14 13 14 16

GFSGBSN_250_rhum_162.txt.gz
RH
82 84 73 65 55 40 34 30 28 27 38 62 90 96 98 100 100 89 77 63 52 44 35 38 37 34 28 25 24 18 15 16 16 15 14 13 12 10 10 9 8 8 8 7 8 9 12
95 82 93 92 73 67 48 35 33 32 28 31 32 34 37 39 39 36 36 37 37 35 33 30 26 26 25 25 20 17 17 16 14 12 10 9 8 8 7 7 6 7 7 7 7 9 8
100 100 85 100 94 79 63 50 43 41 38 35 30 30 28 28 29 30 34 36 35 31 27 23 25 26 25 25 19 18 16 14 12 10 8 7 6 6 5 5 5 5 5 5 6 7 8
100 100 97 100 88 100 92 86 54 57 51 46 44 37 33 35 35 35 37 37 33 32 27 23 22 22 24 22 19 18 15 12 9 7 7 6 4 4 3 3 3 3 3 4 6 6 6
80 99 96 99 100 96 100 100 90 71 74 53 55 47 42 39 38 40 41 42 38 30 26 26 25 27 25 21 20 16 13 10 8 8 5 4 4 4 5 5 4 4 3 3 3 4 5
91 100 80 96 100 100 87 93 100 78 61 76 92 61 56 54 45 45 42 34 36 32 26 27 24 28 25 23 18 14 12 10 10 5 5 6 6 6 5 5 5 5 5 4 4 2 2
87 80 100 69 63 78 100 100 95 83 67 93 88 82 78 70 64 61 45 34 31 32 31 25 22 28 23 22 16 14 11 11 7 6 7 6 6 5 3 3 2 3 4 4 4 4 2
100 99 89 85 92 64 79 89 100 99 100 97 100 83 71 92 82 87 42 39 41 37 31 29 25 30 27 20 16 13 12 11 7 8 7 6 4 3 2 2 2 2 2 2 3 4 3
100 100 95 96 71 97 67 75 63 84 88 73 99 96 100 100 92 86 76 52 74 56 32 32 28 31 26 18 15 14 16 10 10 9 7 6 4 3 4 2 2 2 2 2 2 2 4
100 100 100 98 90 79 96 69 83 77 98 84 82 100 98 100 100 86 68 60 68 54 32 35 35 34 24 18 17 16 17 12 12 11 8 8 6 5 5 3 2 2 2 2 2 2 2
100 100 100 100 92 86 86 67 78 88 74 99 100 100 100 100 100 98 63 57 71 46 34 33 39 33 22 18 17 18 20 16 12 14 10 12 12 9 5 6 4 3 3 2 2 2 3
61 97 100 100 100 90 78 83 75 67 63 100 100 97 100 100 100 90 66 57 61 48 38 34 40 34 22 19 19 20 22 19 16 15 12 14 15 14 11 7 8 4 3 3 2 2 3
53 47 91 100 100 100 99 78 75 67 68 80 88 95 100 100 99 76 54 49 65 50 39 35 43 32 22 20 21 23 23 19 20 17 15 12 18 17 14 13 13 11 5 5 4 4 4
56 46 46 61 100 100 100 98 88 67 58 84 92 91 99 100 100 97 69 56 62 51 44 35 44 31 22 21 22 24 24 22 21 20 17 14 16 23 18 12 11 7 8 4 4 4 4
69 77 51 47 45 96 100 100 99 76 72 50 69 98 95 100 97 100 84 68 57 48 44 41 47 30 22 21 24 26 26 24 21 21 19 16 14 20 26 18 18 17 10 5 4 4 6
44 60 65 53 47 42 83 99 100 100 66 62 56 47 97 100 91 100 93 79 49 47 48 45 50 29 23 22 23 27 29 24 23 19 18 17 13 14 25 21 14 15 13 8 6 4 4
34 40 55 54 54 43 41 62 92 100 100 60 62 62 56 100 100 100 100 95 63 44 52 52 48 29 24 21 22 29 30 26 23 20 18 16 14 14 16 24 18 12 11 8 8 4 3
28 30 37 44 46 51 62 45 50 87 100 86 72 54 51 92 100 84 98 100 71 44 52 60 47 29 24 22 24 29 31 28 24 22 18 17 13 14 13 23 18 17 8 10 7 5 4
22 26 28 33 33 45 62 54 42 39 78 96 80 66 56 76 79 72 92 100 88 52 51 68 50 28 24 27 26 33 31 30 25 23 18 16 13 12 12 16 17 15 8 14 7 10 4
15 21 24 29 24 33 43 55 43 36 36 66 90 66 62 64 61 78 92 100 98 67 49 74 47 29 24 31 29 33 31 32 26 24 20 15 13 12 11 13 12 12 9 14 12 13 6
11 15 20 21 23 31 27 42 42 38 35 33 77 91 63 56 75 78 86 100 100 73 48 76 50 29 25 38 32 36 35 31 28 24 21 17 13 12 12 12 10 10 8 9 12 11 13
7 10 14 18 23 23 25 24 36 37 34 31 29 93 70 61 99 74 85 100 99 68 52 73 56 30 24 37 34 33 37 36 30 26 22 18 15 12 12 10 9 8 9 8 7 10 12
5 8 10 15 19 25 28 19 28 32 30 26 25 55 93 61 100 74 79 99 100 85 56 70 58 31 24 38 37 34 36 34 34 28 24 20 16 13 12 10 9 7 8 7 8 8 13
6 7 9 12 18 22 28 22 23 30 32 28 25 32 88 63 100 82 68 100 99 83 58 64 59 36 26 33 39 38 37 36 34 33 27 21 18 14 11 10 9 7 7 10 11 12 16
7 8 8 11 17 20 24 23 15 28 29 26 25 27 89 83 82 94 77 87 100 91 70 61 67 45 28 30 38 39 42 43 37 39 35 25 19 16 13 11 10 8 6 8 9 10 13
7 7 8 12 17 22 25 22 16 26 29 26 27 26 72 80 76 100 84 91 100 87 65 65 70 58 29 28 39 41 42 43 45 42 41 36 23 17 15 11 10 9 7 7 10 10 13
8 8 10 15 18 21 20 24 18 19 26 25 26 25 63 78 82 100 99 75 100 81 79 78 70 68 30 29 35 40 41 43 46 42 44 43 38 23 18 15 12 10 9 8 9 9 10
7 9 10 15 16 21 23 24 22 19 27 27 27 24 45 74 82 100 96 78 100 86 90 81 76 72 37 29 31 37 42 43 45 45 41 44 44 41 26 20 17 13 10 9 8 10 11
9 12 13 12 17 19 21 21 20 16 21 26 26 26 38 90 86 100 93 92 100 95 97 100 83 77 55 32 30 33 40 44 45 47 45 43 44 44 43 35 26 22 14 12 10 12 13

GFSGBSN_250_rhum_165.txt.gz
RH
97 97 92 84 76 59 58 51 40 35 33 25 28 70 96 94 92 91 87 70 69 69 80 87 80 60 42 34 28 26 24 23 23 23 23 22 18 14 13 12 11 10 10 9 9 9 8
89 96 100 100 83 91 75 62 49 41 40 34 29 26 24 30 37 44 46 47 42 38 34 32 31 30 31 26 24 21 19 19 21 21 20 17 15 13 12 10 9 8 8 8 8 8 8
100 91 100 100 100 79 73 99 81 60 48 42 41 37 35 34 32 29 28 26 26 27 28 28 27 25 21 20 19 19 19 22 23 21 17 14 12 9 8 7 6 5 5 5 6 6 6
100 100 94 91 100 100 98 92 100 87 71 55 56 48 47 48 42 42 38 35 32 28 27 34 31 28 27 26 23 20 21 25 22 17 13 10 9 7 6 5 3 3 3 3 3 4 4
100 100 90 82 96 100 100 95 98 100 95 91 73 65 54 53 46 54 55 47 48 44 41 40 30 33 31 28 25 21 23 25 19 14 11 9 8 6 4 4 5 5 5 4 4 3 2
98 94 100 97 68 78 83 100 83 100 100 100 98 99 78 74 65 68 76 51 54 63 69 61 43 38 33 32 26 23 29 23 16 13 10 10 8 6 6 5 5 4 4 4 4 4 3
100 100 93 84 94 72 70 75 100 78 100 100 100 100 100 68 77 97 91 65 56 80 82 75 55 41 28 30 28 30 29 20 16 12 11 10 8 8 6 6 4 3 2 2 2 4 4
100 100 100 100 100 78 85 88 79 85 80 93 100 100 100 100 100 100 97 79 78 98 91 70 55 41 29 30 31 34 25 19 14 12 12 10 10 9 7 6 5 3 2 2 2 2 3
59 100 100 100 100 100 97 67 65 69 75 62 64 98 100 100 100 100 100 100 100 100 79 65 59 43 32 32 33 36 24 17 15 14 15 13 12 10 8 6 6 4 3 2 2 2 2
38 37 76 100 100 100 100 100 84 74 74 55 47 55 97 90 100 100 81 100 100 98 74 73 68 43 30 32 36 37 22 18 16 19 15 14 12 12 9 9 7 5 4 3 2 2 2
46 44 39 48 100 100 100 100 100 100 73 62 53 58 55 58 70 89 100 100 100 100 84 82 60 39 29 34 40 36 21 19 16 20 18 16 14 13 10 13 12 6 5 3 3 2 2
44 37 44 48 48 80 98 100 100 97 94 79 66 69 71 56 80 75 99 100 100 100 91 80 66 46 29 38 46 33 21 20 18 22 17 17 16 15 13 14 18 12 9 5 3 3 3
56 53 42 42 55 44 44 84 100 100 100 85 77 67 69 60 82 78 96 100 100 100 90 79 65 45 32 38 50 29 22 20 20 24 22 18 18 16 14 14 18 13 12 15 7 4 4
84 74 56 41 45 67 46 44 52 82 100 100 85 62 61 62 59 80 74 100 100 97 94 78 59 34 34 40 52 25 24 22 22 24 22 22 17 16 13 14 18 16 13 10 12 5 5
70 74 60 44 40 52 76 56 48 50 84 100 100 92 56 68 58 62 78 100 100 99 100 84 55 34 36 43 50 25 28 26 24 26 23 22 17 17 13 13 17 17 16 12 11 8 4
65 62 48 45 40 43 56 62 59 51 50 74 95 100 79 73 55 56 58 100 100 96 100 86 61 32 40 50 48 29 30 30 26 26 24 22 20 16 13 12 16 16 13 14 10 6 5
55 51 55 47 38 42 40 47 64 58 52 52 52 91 99 81 60 55 50 67 98 98 100 90 62 30 38 62 43 34 29 33 27 27 24 22 18 13 12 9 13 15 12 12 11 7 4
42 41 39 39 41 35 41 42 55 58 50 52 49 39 85 91 65 55 58 58 82 82 93 92 62 31 42 68 41 35 28 34 32 29 26 21 17 14 11 10 12 14 10 11 13 8 6
23 24 29 32 33 34 33 37 49 56 48 63 55 50 38 70 86 74 53 54 79 88 82 87 52 33 45 70 37 36 30 36 37 34 27 21 17 14 11 10 12 16 12 14 11 7 15
13 14 15 18 23 26 33 29 36 40 50 54 56 47 43 32 64 84 79 51 72 98 81 80 54 38 46 69 33 38 33 38 39 41 29 22 18 14 12 11 11 14 12 24 13 13 15
7 7 9 10 14 19 26 22 30 36 43 45 59 46 44 41 32 58 66 63 79 94 84 78 59 45 50 72 32 39 36 42 40 42 38 23 16 13 11 10 11 11 11 15 15 11 16
5 4 5 6 8 13 17 22 21 27 31 36 45 50 45 40 44 28 58 77 82 91 76 77 68 53 49 70 38 38 38 45 43 42 42 25 17 13 11 10 9 9 10 11 12 8 10
4 4 5 6 6 10 14 20 20 22 26 26 36 43 47 44 46 31 36 92 83 87 77 91 74 54 55 66 50 36 42 44 43 42 42 35 19 14 12 10 9 9 10 11 13 13 15
4 4 4 5 6 8 12 19 22 21 22 22 34 35 37 38 34 30 28 87 97 92 97 97 78 52 55 60 64 33 44 43 43 38 46 42 22 16 12 10 10 8 9 9 13 14 16
4 4 4 6 7 8 12 14 19 18 16 18 28 30 31 32 37 28 27 83 100 100 100 87 79 63 62 63 62 30 45 42 42 37 44 45 33 20 14 11 11 9 9 8 7 8 14
6 6 4 6 7 10 11 13 17 15 16 18 27 31 30 31 33 31 28 78 100 100 100 95 82 61 66 65 71 33 41 43 44 42 41 40 46 29 20 14 12 11 9 8 8 8 10
9 6 5 7 8 10 12 14 15 18 18 16 21 26 28 29 34 29 27 74 100 100 100 99 89 69 69 65 78 39 34 41 42 43 44 40 41 46 29 20 15 14 11 11 9 8 10
9 6 5 8 10 11 14 15 17 18 19 19 22 25 26 26 28 27 28 70 100 100 100 100 87 82 69 67 86 53 32 35 41 42 46 45 37 40 46 31 22 14 12 10 9 9 9
8 6 6 9 12 11 12 16 19 21 24 24 21 24 27 26 25 25 28 80 100 100 100 100 88 84 70 77 89 68 34 31 37 42 44 48 44 42 35 44 36 23 15 14 12 10 10

GFSGBSN_250_rhum_168.txt.gz
RH
99 94 91 86 80 89 81 92 70 60 52 44 38 34 39 30 30 69 92 99 95 83 79 76 80 67 59 50 43 33 32 29 25 24 22 20 19 18 18 18 18 19 18 16 14 13 11
92 82 90 90 89 84 100 99 88 84 59 55 45 40 40 34 33 32 29 31 40 36 35 35 33 28 28 28 30 27 27 27 25 23 22 18 17 16 18 19 18 17 15 14 12 11 9
100 96 100 100 100 100 100 100 100 78 82 81 63 45 48 40 39 37 34 34 35 38 33 30 33 32 29 31 34 36 30 26 24 22 20 17 16 16 17 16 14 12 10 9 8 7 7
100 100 100 100 100 100 91 97 100 100 84 66 100 88 64 50 47 47 38 45 44 38 45 46 40 42 48 47 57 49 30 26 26 23 22 21 19 18 15 12 9 8 7 6 4 4 3
100 100 100 100 100 100 92 85 99 100 100 89 96 100 100 95 82 66 58 49 50 46 40 57 57 52 60 71 70 46 33 32 29 25 25 22 19 15 11 8 8 6 5 5 5 4 4
100 100 100 100 92 98 100 100 96 93 98 100 100 100 100 100 100 100 80 68 64 68 62 59 75 66 80 85 56 39 39 34 27 24 25 20 16 12 9 10 8 7 7 6 5 4 4
100 100 100 100 100 100 93 100 99 80 72 74 88 85 100 100 100 100 100 100 100 99 87 82 72 78 78 51 47 49 43 38 27 26 26 20 15 12 12 11 9 9 8 5 4 4 4
33 33 83 100 100 100 100 100 100 100 93 66 58 63 61 91 95 100 100 98 100 100 100 98 80 85 81 62 58 50 46 38 28 31 27 20 15 13 14 12 11 10 8 6 6 4 3
50 40 35 38 88 100 100 100 100 87 96 96 88 60 68 56 78 84 97 100 100 100 100 100 98 87 85 78 72 58 44 37 29 33 25 20 15 15 15 13 13 10 8 7 6 4 2
75 93 73 46 36 39 80 100 100 100 100 91 88 75 77 64 67 71 69 69 87 100 100 100 99 94 90 94 81 59 40 32 33 35 25 22 17 17 16 15 13 12 9 8 6 4 4
59 70 83 87 56 47 33 40 76 99 100 100 100 88 77 59 58 63 57 51 52 71 90 100 100 100 99 96 76 58 40 31 39 30 26 21 18 19 18 16 14 12 9 10 6 5 5
68 69 85 85 95 66 51 47 36 33 62 100 100 100 91 62 61 51 50 52 48 54 76 95 98 87 86 88 70 50 35 31 45 32 28 23 19 20 19 16 13 12 10 10 8 7 6
74 62 83 94 100 80 60 64 54 48 38 36 92 100 100 100 83 69 63 49 49 70 72 87 98 90 85 78 63 48 36 36 44 30 30 30 24 22 20 18 13 11 9 11 14 10 4
67 55 60 100 100 100 98 91 70 60 57 43 36 47 85 92 100 98 59 50 52 58 66 66 83 81 91 96 72 43 38 42 41 30 32 32 30 22 20 15 13 10 9 9 11 11 10
64 65 68 94 100 100 100 88 66 71 66 73 39 37 44 46 63 97 98 73 59 58 56 69 94 79 82 85 70 51 48 47 40 34 35 32 33 21 18 14 13 10 10 12 9 6 10
66 68 68 86 86 100 100 88 81 67 79 63 62 40 38 44 43 40 65 81 82 60 55 71 77 89 75 86 78 56 43 54 41 38 39 36 32 22 18 15 13 11 12 14 7 7 9
63 69 75 69 93 90 92 91 85 61 67 73 53 49 42 38 39 40 41 78 88 53 58 62 80 96 80 83 73 56 40 59 42 42 44 33 32 23 16 16 13 12 12 13 7 8 9
59 59 80 94 88 83 88 90 91 70 77 80 70 60 44 43 38 36 48 46 66 80 57 64 85 97 75 66 81 63 40 62 42 46 45 35 30 28 16 14 12 11 11 11 10 10 8
43 41 50 57 65 66 62 73 68 50 54 64 77 71 62 42 37 35 47 48 37 59 63 62 74 85 73 68 74 63 40 65 45 49 44 36 30 26 20 14 11 9 11 10 14 11 7
39 37 33 34 36 34 38 45 50 52 31 46 52 48 57 39 40 42 49 51 42 36 53 77 64 69 71 79 84 56 38 66 46 49 44 38 33 28 18 13 11 9 10 10 13 14 11
30 26 22 20 20 19 19 24 28 35 33 42 30 30 45 46 40 50 64 41 45 42 31 81 83 77 69 94 88 49 41 67 44 50 44 41 36 31 20 13 10 9 10 9 15 13 11
19 16 15 14 12 12 12 13 16 18 21 29 22 21 35 44 52 49 47 42 65 44 32 78 98 86 69 93 88 58 47 69 46 50 44 40 38 34 22 13 10 9 9 10 12 9 6
14 11 10 9 8 8 7 8 10 12 15 19 18 20 25 38 49 44 45 62 60 31 35 44 100 90 77 99 80 66 45 68 48 52 44 40 39 36 23 14 10 10 10 9 8 11 7
9 8 7 6 6 6 5 5 6 8 10 15 16 19 20 40 46 43 67 55 45 38 30 46 99 88 86 100 88 72 49 70 54 51 44 42 41 37 27 16 11 10 11 10 9 12 13
6 6 6 6 5 5 5 7 7 7 9 12 14 16 18 24 33 48 52 50 38 32 32 48 100 93 88 100 98 72 48 72 56 48 44 43 42 40 33 19 13 11 12 14 10 9 11
6 6 5 6 6 6 6 6 8 9 10 11 10 12 15 21 27 44 47 40 27 31 30 44 100 94 89 100 98 59 52 75 60 48 44 42 44 45 39 25 16 11 15 14 14 13 12
5 6 8 8 8 5 5 6 8 11 10 8 8 12 14 18 25 33 38 42 36 32 32 43 100 92 99 100 96 62 54 76 68 47 40 41 46 46 42 38 25 15 16 16 17 13 13
7 8 9 7 6 6 5 7 9 12 9 9 10 11 13 22 28 30 33 35 33 32 32 68 100 100 100 100 87 64 60 76 80 49 39 39 42 47 50 42 40 21 15 16 14 12 14
8 9 9 7 7 6 6 7 9 10 12 13 13 12 14 19 23 25 27 33 32 34 32 88 100 100 100 100 92 74 63 82 91 52 43 40 41 44 51 54 42 43 26 16 15 15 15